FW7659 Weather Reports


time (UTC)temp
F
wind
direction
speed
knots
gust
knots
rain 1hr
in
rain 24hr
in
rain mn
in
humidity
%
barometer
mb
20260505230904 68 216 0.0 1.7 0.00 0.00 0.00 52 1014.7
20260505230404 68 216 0.0 1.7 0.00 0.00 0.00 52 1014.6
20260505225904 69 216 0.0 1.7 0.00 0.00 0.00 52 1014.6
20260505225403 69 216 0.0 0.0 0.00 0.00 0.00 51 1014.5
20260505224903 69 216 0.0 0.0 0.00 0.00 0.00 51 1014.5
20260505224404 69 216 0.0 0.0 0.00 0.00 0.00 52 1014.6
20260505223404 69 216 0.0 0.0 0.00 0.00 0.00 51 1014.7
20260505222904 69 216 0.0 0.0 0.00 0.00 0.00 52 1014.8
20260505222403 69 216 0.0 1.7 0.00 0.00 0.00 50 1014.9
20260505221904 69 216 0.0 0.9 0.00 0.00 0.00 51 1014.9
20260505221404 70 216 0.0 0.0 0.00 0.00 0.00 52 1014.9
20260505220404 69 216 0.0 1.7 0.00 0.00 0.00 52 1014.9
20260505215904 70 216 0.0 1.7 0.00 0.00 0.00 52 1015.0
20260505215404 70 216 0.0 1.7 0.00 0.00 0.00 48 1014.5
20260505214903 70 212 0.0 1.7 0.00 0.00 0.00 48 1014.4
20260505214403 70 212 0.0 1.7 0.00 0.00 0.00 48 1014.6
20260505213904 70 212 0.0 1.7 0.00 0.00 0.00 49 1014.7
20260505213404 70 205 0.9 1.7 0.00 0.00 0.00 49 1014.7
20260505212404 70 226 0.0 1.7 0.00 0.00 0.00 49 1014.6
20260505211904 70 226 0.0 1.7 0.00 0.00 0.00 47 1014.7
20260505210904 70 216 0.9 1.7 0.00 0.00 0.00 49 1014.7
20260505210403 71 212 0.0 2.6 0.00 0.00 0.00 48 1014.7
20260505205904 71 206 0.0 1.7 0.00 0.00 0.00 49 1014.8
20260505205403 71 206 0.9 1.7 0.00 0.00 0.00 47 1014.9
20260505204904 71 227 0.9 1.7 0.00 0.00 0.00 46 1014.8
20260505204403 71 226 0.9 1.7 0.00 0.00 0.00 47 1014.9
20260505203904 71 226 0.0 0.9 0.00 0.00 0.00 48 1014.8
20260505203403 71 226 0.0 1.7 0.00 0.00 0.00 47 1014.8
20260505202904 71 230 0.0 1.7 0.00 0.00 0.00 46 1014.7
20260505202403 71 253 0.0 1.7 0.00 0.00 0.00 47 1014.7
20260505201904 71 214 0.0 1.7 0.00 0.00 0.00 46 1015.0
20260505201404 72 247 0.0 1.7 0.00 0.00 0.00 48 1015.1
20260505200904 72 214 0.9 2.6 0.00 0.00 0.00 47 1015.0
20260505200403 71 225 0.0 0.9 0.00 0.00 0.00 47 1015.2
20260505195903 71 202 0.9 5.2 0.00 0.00 0.00 43 1015.4
20260505195404 72 249 0.9 2.6 0.00 0.00 0.00 45 1015.4
20260505194903 72 247 0.0 1.7 0.00 0.00 0.00 44 1015.3
20260505194404 72 223 0.0 1.7 0.00 0.00 0.00 43 1015.5
20260505193904 73 241 0.9 2.6 0.00 0.00 0.00 45 1015.6
20260505193403 72 226 0.9 1.7 0.00 0.00 0.00 46 1015.7
20260505192904 73 274 0.0 1.7 0.00 0.00 0.00 45 1015.6
20260505192403 73 218 0.0 1.7 0.00 0.00 0.00 48 1015.7
20260505191404 75 280 0.9 1.7 0.00 0.00 0.00 46 1015.9
20260505190903 75 259 0.0 0.9 0.00 0.00 0.00 45 1015.9
20260505190404 75 261 0.9 1.7 0.00 0.00 0.00 47 1016.0
20260505185904 75 263 0.0 0.9 0.00 0.00 0.00 45 1016.0
20260505185403 74 264 0.9 1.7 0.00 0.00 0.00 45 1016.1
20260505184904 73 246 0.0 0.9 0.00 0.00 0.00 44 1016.1
20260505184404 74 233 0.9 1.7 0.00 0.00 0.00 42 1016.0
20260505183904 74 296 0.0 1.7 0.00 0.00 0.00 42 1016.0
20260505183404 74 277 0.9 1.7 0.00 0.00 0.00 41 1016.1
20260505182404 75 293 0.9 1.7 0.00 0.00 0.00 42 1016.1
20260505181903 75 256 0.9 1.7 0.00 0.00 0.00 44 1016.3
20260505181404 75 250 0.9 2.6 0.00 0.00 0.00 45 1016.4
20260505180903 74 236 0.9 1.7 0.00 0.00 0.00 45 1016.4
20260505180404 74 247 0.9 1.7 0.00 0.00 0.00 44 1016.5
20260505175904 75 250 0.9 1.7 0.00 0.00 0.00 45 1016.5
20260505175403 75 269 0.9 1.7 0.00 0.00 0.00 46 1016.8
20260505174903 75 279 0.0 2.6 0.00 0.00 0.00 45 1017.0
20260505174404 74 272 0.9 1.7 0.00 0.00 0.00 46 1017.0
20260505173904 74 293 0.9 1.7 0.00 0.00 0.00 48 1017.0
20260505173404 73 257 0.9 1.7 0.00 0.00 0.00 49 1017.0
20260505172904 73 260 0.9 1.7 0.00 0.00 0.00 49 1017.1
20260505172403 73 221 0.9 1.7 0.00 0.00 0.00 47 1017.0
20260505171904 74 260 0.9 1.7 0.00 0.00 0.00 45 1017.2
20260505171404 74 274 0.9 1.7 0.00 0.00 0.00 46 1017.3
20260505170403 75 253 0.9 1.7 0.00 0.00 0.00 47 1017.4
20260505165904 75 320 0.9 2.6 0.00 0.00 0.00 46 1017.3
20260505165404 74 294 0.0 1.7 0.00 0.00 0.00 48 1017.2
20260505164904 73 267 0.9 2.6 0.00 0.00 0.00 46 1017.2
20260505164404 74 262 0.0 0.9 0.00 0.00 0.00 45 1017.2
20260505163904 74 220 0.9 1.7 0.00 0.00 0.00 46 1017.1
20260505163403 73 125 0.9 1.7 0.00 0.00 0.00 44 1017.2
20260505162903 73 268 0.9 2.6 0.00 0.00 0.00 45 1017.2
20260505161904 72 319 0.9 2.6 0.00 0.00 0.00 43 1017.4
20260505161404 73 263 0.9 1.7 0.00 0.00 0.00 42 1017.3
20260505160903 73 245 0.9 1.7 0.00 0.00 0.00 47 1017.3
20260505160404 72 266 0.0 0.9 0.00 0.00 0.00 44 1017.3
20260505152904 70 280 0.9 0.9 0.00 0.00 0.00 53 1017.4
20260505152404 70 259 0.0 1.7 0.00 0.00 0.00 54 1017.4
20260505151403 69 236 0.9 0.9 0.00 0.00 0.00 56 1017.5
20260505150903 69 257 0.0 1.7 0.00 0.00 0.00 56 1017.6
20260505140404 62 319 0.0 1.7 0.00 0.00 0.00 62 1017.5
20260505124904 57 122 0.0 0.9 0.00 0.00 0.00 66 1016.9
20260505124403 57 122 0.0 1.7 0.00 0.00 0.00 66 1016.8
20260505123904 57 122 0.0 1.7 0.00 0.00 0.00 65 1016.7
20260505123403 57 122 0.0 1.7 0.00 0.00 0.00 65 1016.8
20260505122903 57 122 0.0 1.7 0.00 0.00 0.00 66 1016.8
20260505122404 57 122 0.0 1.7 0.00 0.00 0.00 65 1016.8
20260505121903 57 122 0.0 1.7 0.00 0.00 0.00 64 1016.8
20260505121403 57 122 0.9 1.7 0.00 0.00 0.00 66 1016.8
20260505120403 56 122 0.0 0.0 0.00 0.00 0.00 66 1016.8
20260505115904 56 122 0.0 0.0 0.00 0.00 0.00 64 1016.8
20260505115404 56 122 0.0 1.7 0.00 0.00 0.00 67 1016.7
20260505114903 57 123 0.0 1.7 0.00 0.00 0.00 68 1016.7
20260505113903 57 124 0.0 0.0 0.00 0.00 0.00 65 1016.4
20260505113404 57 124 0.0 0.0 0.00 0.00 0.00 64 1016.3
20260505112904 57 124 0.0 0.0 0.00 0.00 0.00 63 1016.1
20260505112404 57 124 0.0 0.0 0.00 0.00 0.00 62 1016.1
20260505111904 57 124 0.0 0.0 0.00 0.00 0.00 62 1016.0
20260505111404 56 124 0.0 1.7 0.00 0.00 0.00 62 1016.0
20260505110904 56 124 0.0 0.9 0.00 0.00 0.00 62 1015.9
20260505110403 56 124 0.0 1.7 0.00 0.00 0.00 61 1016.1
20260505101904 56 124 0.0 1.7 0.00 0.00 0.00 60 1015.8
20260505101404 56 124 0.0 1.7 0.00 0.00 0.00 60 1015.8
20260505100904 56 124 0.0 1.7 0.00 0.00 0.00 60 1016.0
20260505100404 56 124 0.0 1.7 0.00 0.00 0.00 60 1016.1
20260505095903 56 124 0.0 1.7 0.00 0.00 0.00 61 1016.2
20260505095404 56 124 0.0 1.7 0.00 0.00 0.00 61 1016.2
20260505094903 56 124 0.0 1.7 0.00 0.00 0.00 61 1016.0
20260505094404 56 124 0.0 0.0 0.00 0.00 0.00 60 1016.2
20260505093904 56 124 0.0 1.7 0.00 0.00 0.00 60 1016.2
20260505093403 57 124 0.0 1.7 0.00 0.00 0.00 60 1016.1
20260505092904 57 124 0.0 1.7 0.00 0.00 0.00 59 1016.1
20260505092404 57 124 0.9 1.7 0.00 0.00 0.00 59 1016.2
20260505091903 57 109 0.0 1.7 0.00 0.00 0.00 58 1016.2
20260505091404 57 109 0.0 1.7 0.00 0.00 0.00 58 1016.1
20260505090904 57 109 0.0 1.7 0.00 0.00 0.00 58 1016.1
20260505090404 57 91 0.0 1.7 0.00 0.00 0.00 57 1016.3
20260505085904 57 91 0.0 1.7 0.00 0.00 0.00 58 1016.3
20260505084904 57 86 0.0 1.7 0.00 0.00 0.00 59 1016.3
20260505084403 57 86 0.0 1.7 0.00 0.00 0.00 59 1016.4
20260505083403 57 86 0.0 1.7 0.00 0.00 0.00 60 1016.4
20260505082904 57 86 0.0 1.7 0.00 0.00 0.00 60 1016.4
20260505081904 57 86 0.0 0.9 0.00 0.00 0.00 60 1016.3
20260505080404 57 86 0.0 1.7 0.00 0.00 0.00 61 1016.3
20260505074904 57 86 0.0 1.7 0.00 0.00 0.00 61 1016.4
20260505073904 57 86 0.0 1.7 0.00 0.00 0.00 59 1016.4
20260505073404 58 86 0.0 1.7 0.00 0.00 0.00 58 1016.4
20260505072904 58 86 0.0 0.9 0.00 0.00 0.00 58 1016.4
20260505072404 58 86 0.0 0.9 0.00 0.00 0.00 58 1016.4
20260505071904 59 86 0.0 1.7 0.00 0.00 0.00 56 1016.4
20260505071404 58 86 0.0 1.7 0.00 0.00 0.00 57 1016.4
20260505070904 59 86 0.0 1.7 0.00 0.00 0.00 57 1016.4
20260505065904 58 86 0.0 1.7 0.00 0.00 0.00 57 1016.3
20260505065404 59 86 0.0 0.9 0.00 0.00 0.00 57 1016.3
20260505064905 59 86 0.0 1.7 0.00 0.00 0.00 57 1016.4
20260505064403 59 86 0.0 1.7 0.00 0.00 0.00 56 1016.4
20260505063404 59 86 0.0 1.7 0.00 0.00 0.00 56 1016.4
20260505062904 59 86 0.0 1.7 0.00 0.00 0.00 56 1016.4
20260505062404 59 86 0.0 1.7 0.00 0.00 0.00 56 1016.5
20260505061904 59 86 0.0 1.7 0.00 0.00 0.00 55 1016.6
20260505061404 59 86 0.0 1.7 0.00 0.00 0.00 55 1016.6
20260505060903 59 85 0.0 1.7 0.00 0.00 0.00 56 1016.6
20260505060404 59 85 0.0 1.7 0.00 0.00 0.00 56 1016.6
20260505055903 59 85 0.0 1.7 0.00 0.00 0.00 56 1016.7
20260505054404 59 68 0.0 0.9 0.00 0.00 0.00 58 1016.8
20260505053904 59 168 0.0 1.7 0.00 0.00 0.00 58 1016.8
20260505053403 59 168 0.0 0.9 0.00 0.00 0.00 57 1016.8
20260505052904 59 168 0.0 1.7 0.00 0.00 0.00 57 1016.7
20260505051904 59 169 0.0 1.7 0.00 0.00 0.00 57 1016.8
20260505051404 59 168 0.0 1.7 0.00 0.00 0.00 58 1016.9
20260505050904 59 168 0.0 1.7 0.00 0.00 0.00 57 1016.9
20260505050404 59 169 0.0 1.7 0.00 0.00 0.00 57 1016.8
20260505040904 60 168 0.0 1.7 0.00 0.00 0.00 55 1016.6
20260505040403 60 168 0.0 1.7 0.00 0.00 0.00 55 1016.7
20260505035903 60 168 0.0 1.7 0.00 0.00 0.00 54 1016.7
20260505035404 60 168 0.0 1.7 0.00 0.00 0.00 53 1016.8
20260505034903 61 168 0.0 1.7 0.00 0.00 0.00 53 1016.8
20260505034403 61 168 0.0 0.9 0.00 0.00 0.00 53 1016.8
20260505033903 61 168 0.0 1.7 0.00 0.00 0.00 53 1016.8
20260505033404 61 168 0.0 1.7 0.00 0.00 0.00 53 1016.8
20260505032903 61 168 0.0 1.7 0.00 0.00 0.00 53 1016.8
20260505032404 61 168 0.0 1.7 0.00 0.00 0.00 52 1016.9
20260505031904 62 168 0.0 1.7 0.00 0.00 0.00 52 1016.9
20260505031403 62 168 0.0 0.9 0.00 0.00 0.00 51 1016.9
20260505030904 62 180 0.0 0.9 0.00 0.00 0.00 51 1016.8
20260505030404 62 180 0.0 1.7 0.00 0.00 0.00 52 1016.8
20260505025904 62 180 0.0 0.9 0.00 0.00 0.00 52 1016.8
20260505025403 62 180 0.0 1.7 0.00 0.00 0.00 52 1017.0
20260505024904 62 180 0.0 0.9 0.00 0.00 0.00 53 1016.9
20260505024404 63 180 0.0 0.9 0.00 0.00 0.00 52 1016.8
20260505023904 62 180 0.0 1.7 0.00 0.00 0.00 52 1016.8
20260505022904 62 180 0.0 1.7 0.00 0.00 0.00 53 1016.8
20260505022404 62 180 0.0 1.7 0.00 0.00 0.00 53 1016.8
20260505021904 62 180 0.0 0.9 0.00 0.00 0.00 53 1016.7
20260505020903 63 180 0.0 1.7 0.00 0.00 0.00 54 1016.6
20260505015404 63 180 0.0 0.0 0.00 0.00 0.00 53 1016.5
20260505014904 63 180 0.0 1.7 0.00 0.00 0.00 55 1016.5
20260505014404 63 180 0.0 0.0 0.00 0.00 0.00 54 1016.5
20260505013903 64 180 0.0 0.9 0.00 0.00 0.00 53 1016.3
20260505013403 64 180 0.0 1.7 0.00 0.00 0.00 52 1016.3
20260505012904 64 180 0.0 1.7 0.00 0.00 0.00 53 1016.2
20260505011904 64 180 0.0 1.7 0.00 0.00 0.00 53 1016.2
20260505011404 64 180 0.0 1.7 0.00 0.00 0.00 54 1016.2
20260505005903 64 180 0.0 0.0 0.00 0.00 0.00 57 1016.2
20260505005404 64 180 0.0 1.7 0.00 0.00 0.00 56 1016.2
20260505004903 64 180 0.0 1.7 0.00 0.00 0.00 55 1016.2
20260505004404 64 180 0.0 0.9 0.00 0.00 0.00 56 1016.1
20260505003903 65 180 0.0 1.7 0.00 0.00 0.00 55 1016.1
20260505003404 65 180 0.0 0.9 0.00 0.00 0.00 54 1016.0
20260505002904 65 180 0.0 0.9 0.00 0.00 0.00 53 1016.0
20260505002404 65 180 0.0 1.7 0.00 0.00 0.00 54 1015.9
20260505001904 66 181 0.0 0.9 0.00 0.00 0.00 54 1015.9
20260505000904 66 181 0.0 1.7 0.00 0.00 0.00 57 1015.8
20260505000405 66 181 0.0 1.7 0.00 0.00 0.00 56 1015.9
20260504235904 67 181 0.0 1.7 0.00 0.00 0.00 55 1015.9
20260504235404 67 181 0.0 0.0 0.00 0.00 0.00 54 1015.9
20260504234904 67 181 0.0 0.0 0.00 0.00 0.00 53 1016.0
20260504234403 67 181 0.0 1.7 0.00 0.00 0.00 53 1016.0
20260504233904 66 181 0.0 0.0 0.00 0.00 0.00 54 1016.0
20260504233403 66 181 0.0 0.0 0.00 0.00 0.00 54 1016.0
20260504232904 66 181 0.0 0.0 0.00 0.00 0.00 53 1016.0
20260504232404 67 181 0.0 0.0 0.00 0.00 0.00 53 1016.0
20260504231904 67 181 0.0 0.0 0.00 0.00 0.00 52 1016.0
20260504231404 67 181 0.0 0.0 0.00 0.00 0.00 51 1015.9